Spokane, WA

10:22 AM PST on January 19, 2018 (GMT -0800)
Spokane International

Weather History for KGEG - February, 2014

Change the Weather History Date:

Monday, February 17, 2014

  Actual Average Record
Temperature  
Mean Temperature 39 °F 33 °F  
Max Temperature 45 °F 40 °F 58 °F (1930)
Min Temperature 32 °F 26 °F -5 °F (1881)
Degree Days  
Heating Degree Days 26 32  
Month to date heating degree days 699 558  
Since 1 July heating degree days 4657 4491  
Cooling Degree Days 0 0  
Month to date cooling degree days 0 0  
Year to date cooling degree days 0 0  
Moisture  
Dew Point 30 °F    
Average Humidity 64    
Maximum Humidity 76    
Minimum Humidity 51    
Precipitation  
Precipitation 0.03 in 0.05 in 0.71 in (1940)
Month to date precipitation 1.01 0.80  
Year to date precipitation 2.02 2.59  
Snow  
Snow T in 0.30 in 7.60 in (1989)
Month to date snowfall 8.4 4.5  
Since 1 July snowfall 22.3 38.0  
Snow Depth 0.00 in    
Sea Level Pressure  
Sea Level Pressure 29.71 in    
Wind  
Wind Speed 23 mph (SW)    
Max Wind Speed 38 mph    
Max Gust Speed 49 mph    
Visibility 10 miles    
Events Rain , Snow    
T = Trace of Precipitation, MM = Missing Value Source: NWS Daily Summary

Daily Weather History Graph

Daily Weather History Graph

Search for Another Location

Airport or City:

Trip Planner

Search our weather history database for the weather conditions in past years. The results will help you decide how hot, cold, wet, or windy it might be!

Date:

Astronomy

Feb. 17, 2014 Rise Set
Actual Time 6:52 AM PST 5:16 PM PST
Civil Twilight 6:20 AM PST 5:48 PM PST
Nautical Twilight 5:44 AM PST 6:24 PM PST
Astronomical Twilight 5:09 AM PST 6:59 PM PST
Moon 8:32 PM PST (2/17) 7:41 AM PST (2/17)
Length of Visible Light 11h 27m
Length of Day
10h 24m
Waning Gibbous, 93% of the Moon is Illuminated
Feb 17
Waning Gibbous
Feb 22
Last Quarter
Mar 1
New
Mar 8
First Quarter
Mar 16
Full

Hourly Weather History & Observations

Time (PST) Temp. Windchill Dew Point Humidity Pressure Visibility Wind Dir Wind Speed Gust Speed Precip Events Conditions
12:53 AM 39.9 °F 30.5 °F 25.0 °F 55% 29.76 in 10.0 mi South 19.6 mph 26.5 mph N/A   Overcast
1:53 AM 41.0 °F 31.1 °F 25.0 °F 53% 29.73 in 10.0 mi SSW 23.0 mph 33.4 mph N/A   Overcast
2:53 AM 41.0 °F 30.5 °F 26.1 °F 55% 29.72 in 10.0 mi SSW 26.5 mph 35.7 mph N/A   Overcast
3:53 AM 39.9 °F 29.2 °F 27.0 °F 60% 29.71 in 10.0 mi SSW 25.3 mph 32.2 mph 0.00 in Rain Light Rain
4:53 AM 41.0 °F 30.9 °F 27.0 °F 57% 29.70 in 10.0 mi SSW 24.2 mph 33.4 mph 0.00 in Rain Light Rain
5:53 AM 39.9 °F 28.2 °F 28.9 °F 65% 29.70 in 10.0 mi SW 31.1 mph 48.3 mph 0.00 in Rain Light Rain
6:53 AM 39.0 °F 27.6 °F 30.9 °F 73% 29.68 in 10.0 mi SW 27.6 mph 36.8 mph 0.00 in Rain Light Rain
7:53 AM 39.9 °F 29.2 °F 30.9 °F 70% 29.68 in 10.0 mi SW 25.3 mph - 0.00 in   Overcast
8:53 AM 39.9 °F 29.0 °F 32.0 °F 73% 29.68 in 10.0 mi SW 26.5 mph 34.5 mph 0.00 in Rain Light Rain
9:53 AM 37.0 °F 26.2 °F 33.1 °F 86% 29.68 in 10.0 mi SSW 21.9 mph - 0.00 in Rain , Snow Light Rain
10:13 AM 37.0 °F 25.6 °F 34.0 °F 89% 29.64 in 6.0 mi SW 24.2 mph 34.5 mph 0.01 in Rain Light Rain
10:24 AM 37.0 °F 26.7 °F 34.0 °F 89% 29.64 in 3.0 mi SSW 19.6 mph - 0.03 in Rain Light Rain
10:27 AM 37.0 °F 27.0 °F 34.0 °F 89% 29.64 in 7.0 mi SW 18.4 mph 26.5 mph 0.03 in Rain Light Rain
10:53 AM 39.0 °F 29.0 °F 35.1 °F 86% 29.65 in 10.0 mi SSW 20.7 mph - 0.03 in   Mostly Cloudy
11:53 AM 41.0 °F 31.9 °F 34.0 °F 76% 29.65 in 10.0 mi SSW 19.6 mph 29.9 mph N/A   Overcast
12:53 PM 42.1 °F 32.3 °F 35.1 °F 76% 29.64 in 10.0 mi SW 24.2 mph 31.1 mph N/A   Overcast
1:53 PM 43.0 °F 33.3 °F 36.0 °F 76% 29.62 in 10.0 mi SW 25.3 mph 35.7 mph N/A   Overcast
2:53 PM 43.0 °F 33.1 °F 36.0 °F 76% 29.63 in 10.0 mi SW 26.5 mph 32.2 mph N/A   Mostly Cloudy
3:53 PM 44.1 °F 33.7 °F 32.0 °F 63% 29.65 in 10.0 mi WSW 32.2 mph 42.6 mph N/A   Mostly Cloudy
4:53 PM 42.1 °F 31.9 °F 28.0 °F 58% 29.68 in 10.0 mi WSW 26.5 mph - N/A   Partly Cloudy
5:53 PM 37.9 °F 27.1 °F 27.0 °F 65% 29.70 in 10.0 mi SW 23.0 mph - N/A   Partly Cloudy
6:53 PM 37.0 °F 25.9 °F 27.0 °F 67% 29.73 in 10.0 mi WSW 23.0 mph 32.2 mph N/A   Partly Cloudy
7:53 PM 35.1 °F 24.5 °F 26.1 °F 70% 29.77 in 10.0 mi SW 18.4 mph 26.5 mph N/A   Clear
8:53 PM 35.1 °F 23.5 °F 25.0 °F 67% 29.81 in 10.0 mi WSW 21.9 mph - N/A   Partly Cloudy
9:53 PM 33.1 °F 22.2 °F 25.0 °F 72% 29.85 in 10.0 mi SW 17.3 mph - N/A   Partly Cloudy
10:53 PM 33.1 °F 22.6 °F 26.1 °F 75% 29.87 in 10.0 mi SW 16.1 mph - N/A   Mostly Cloudy
11:53 PM 32.0 °F 21.2 °F 24.1 °F 73% 29.90 in 10.0 mi WSW 16.1 mph - N/A   Scattered Clouds